GW2639 Weather Reports


time (UTC)temp
F
wind
direction
speed
knots
gust
knots
rain 1hr
in
rain 24hr
in
rain mn
in
humidity
%
barometer
mb
20260510204539 70 180 1.7 3.5 0.01 0.01 0.01 76 1015.1
20260510203049 71 238 0.9 2.6 0.01 0.01 0.01 73 1014.7
20260510201547 73 316 1.7 3.5 0.01 0.01 0.01 67 1014.7
20260510200044 73 296 1.7 5.2 0.01 0.01 0.01 68 1014.8
20260510194554 72 0 0.9 10.4 0.00 0.00 0.00 68 1015.0
20260510193042 76 292 1.7 4.3 0.00 0.00 0.00 55 1015.1
20260510191539 75 149 0.9 3.5 0.00 0.00 0.00 59 1014.8
20260510190054 77 251 0.9 5.2 0.00 0.00 0.00 52 1014.7
20260510184545 76 229 0.9 3.5 0.00 0.00 0.00 53 1014.8
20260510183040 76 281 0.9 6.1 0.00 0.00 0.00 53 1014.7
20260510181539 74 211 0.0 3.5 0.00 0.00 0.00 63 1014.6
20260510180119 74 283 2.6 8.7 0.00 0.00 0.00 55 1014.6
20260510174539 75 259 4.3 8.7 0.00 0.00 0.00 49 1014.5
20260510173042 80 293 4.3 7.8 0.00 0.00 0.00 41 1014.3
20260510171540 79 291 3.5 9.6 0.00 0.00 0.00 41 1014.3
20260510170042 79 253 2.6 13.9 0.00 0.00 0.00 42 1014.3
20260510164542 79 199 1.7 9.6 0.00 0.00 0.00 42 1014.3
20260510163103 79 289 2.6 10.4 0.00 0.00 0.00 41 1014.5
20260510161557 78 304 7.0 11.3 0.00 0.00 0.00 42 1014.7
20260510160055 77 255 3.5 10.4 0.00 0.00 0.00 45 1014.7
20260510154542 77 274 5.2 9.6 0.00 0.00 0.00 45 1014.9
20260510153045 76 235 2.6 7.8 0.00 0.00 0.00 48 1014.9
20260510151550 74 293 3.5 11.3 0.00 0.00 0.00 49 1015.1
20260510150051 74 209 3.5 10.4 0.00 0.00 0.00 51 1015.2
20260510144546 73 245 0.9 3.5 0.00 0.00 0.00 57 1015.3
20260510143049 70 74 1.7 3.5 0.00 0.00 0.00 67 1015.3
20260510141541 67 64 0.9 3.5 0.00 0.00 0.00 71 1015.3
20260510140039 64 49 1.7 3.5 0.00 0.00 0.00 74 1015.1
20260510134547 62 58 0.9 4.3 0.00 0.00 0.00 78 1015.2
20260510133041 60 68 2.6 6.1 0.00 0.00 0.00 82 1015.3
20260510131540 58 95 2.6 5.2 0.00 0.00 0.00 86 1015.4
20260510130041 56 112 1.7 5.2 0.00 0.00 0.00 89 1015.5
20260510124550 55 90 0.9 2.6 0.00 0.00 0.00 91 1015.8
20260510123046 52 232 0.9 3.5 0.00 0.00 0.00 92 1015.6
20260510121541 51 0 0.0 2.6 0.00 0.00 0.00 93 1015.6
20260510120040 50 237 0.9 2.6 0.00 0.00 0.00 93 1015.6
20260510114540 50 0 0.0 3.5 0.00 0.00 0.00 93 1015.4
20260510113041 50 189 0.0 3.5 0.00 0.00 0.00 93 1015.1
20260510111551 49 222 1.7 3.5 0.00 0.00 0.00 93 1014.8
20260510110041 48 216 1.7 4.3 0.00 0.00 0.00 93 1014.7
20260510104548 48 0 0.0 4.3 0.00 0.00 0.00 92 1014.7
20260510103047 48 214 1.7 4.3 0.00 0.00 0.00 92 1014.5
20260510101539 48 206 1.7 4.3 0.00 0.00 0.00 93 1014.3
20260510100047 48 222 0.9 4.3 0.00 0.00 0.00 92 1014.0
20260510094542 48 218 1.7 3.5 0.00 0.00 0.00 92 1013.9
20260510093052 48 224 1.7 5.2 0.00 0.00 0.00 92 1013.8
20260510091540 48 229 0.9 4.3 0.00 0.00 0.00 92 1013.7
20260510090043 48 208 2.6 4.3 0.00 0.00 0.00 92 1013.6
20260510084551 48 226 2.6 4.3 0.00 0.00 0.00 92 1013.5
20260510083047 48 172 2.6 4.3 0.00 0.00 0.00 92 1013.3
20260510081600 49 219 1.7 5.2 0.00 0.00 0.00 92 1013.4
20260510080039 49 214 0.9 3.5 0.00 0.00 0.00 92 1013.4
20260510074540 49 218 1.7 3.5 0.00 0.00 0.00 92 1013.3
20260510073055 49 237 1.7 2.6 0.00 0.00 0.00 92 1013.1
20260510071543 49 215 1.7 3.5 0.00 0.00 0.00 91 1013.1
20260510070042 49 224 1.7 3.5 0.00 0.00 0.00 91 1013.0
20260510064552 49 227 0.9 3.5 0.00 0.00 0.00 91 1013.0
20260510063043 50 235 0.9 5.2 0.00 0.00 0.00 91 1013.0
20260510061545 50 235 0.9 3.5 0.00 0.00 0.00 91 1013.0
20260510060048 50 246 1.7 4.3 0.00 0.00 0.00 91 1013.1
20260510054540 50 219 0.0 3.5 0.00 0.00 0.00 90 1013.2
20260510053046 51 229 1.7 2.6 0.00 0.00 0.00 90 1013.1
20260510051545 51 0 0.0 4.3 0.00 0.00 0.00 90 1013.1
20260510050046 51 235 0.9 6.1 0.00 0.00 0.00 90 1013.3
20260510044554 52 233 1.7 4.3 0.00 0.00 0.00 90 1013.3
20260510043050 52 0 0.0 3.5 0.00 0.00 0.00 89 1013.4
20260510041538 53 219 0.9 3.5 0.00 0.00 0.00 89 1013.2
20260510040046 53 222 0.9 3.5 0.00 0.00 0.00 88 1013.1
20260510034544 53 239 1.7 4.3 0.00 0.00 0.00 88 1013.3
20260510033056 54 233 1.7 4.3 0.00 0.00 0.00 87 1013.2
20260510031540 54 247 1.7 3.5 0.00 0.00 0.00 87 1012.8
20260510030106 55 276 2.6 4.3 0.00 0.00 0.00 87 1012.7
20260510024545 55 235 1.7 3.5 0.00 0.00 0.00 86 1012.4
20260510023039 56 234 2.6 4.3 0.00 0.00 0.00 85 1012.2
20260510021539 56 224 0.9 3.5 0.00 0.00 0.00 84 1011.9
20260510020039 57 221 2.6 4.3 0.00 0.00 0.00 83 1011.9
20260510014550 57 228 1.7 3.5 0.00 0.00 0.00 82 1011.7
20260510013041 58 218 1.7 5.2 0.00 0.00 0.00 80 1011.4
20260510011540 59 236 3.5 8.7 0.00 0.00 0.00 77 1011.2
20260510010039 60 222 3.5 7.8 0.00 0.00 0.00 76 1011.0
20260510004541 61 224 3.5 5.2 0.00 0.00 0.00 75 1010.8
20260510003048 62 237 3.5 6.1 0.00 0.00 0.00 74 1010.6
20260510001540 62 247 2.6 4.3 0.00 0.00 0.00 73 1010.5
20260510000046 63 235 1.7 4.3 0.00 0.00 0.00 72 1010.3
20260509234555 65 216 1.7 4.3 0.00 0.00 0.00 69 1010.3
20260509233048 67 245 0.0 3.5 0.00 0.00 0.00 63 1010.1
20260509231540 69 254 0.0 5.2 0.00 0.00 0.00 58 1010.2
20260509230048 70 251 0.9 6.1 0.00 0.00 0.00 54 1010.1
20260509224546 71 257 2.6 8.7 0.00 0.00 0.00 53 1010.0
20260509223045 71 310 3.5 7.8 0.00 0.00 0.00 52 1010.0
20260509221544 71 272 0.9 10.4 0.00 0.00 0.00 53 1010.2
20260509220047 71 321 2.6 11.3 0.00 0.00 0.00 51 1010.2
20260509214548 71 253 2.6 9.6 0.00 0.00 0.00 52 1010.2
20260509213043 71 303 2.6 8.7 0.00 0.00 0.00 52 1010.2
20260509211541 72 251 2.6 8.7 0.00 0.00 0.00 51 1010.2
20260509210040 71 245 0.9 5.2 0.00 0.00 0.00 53 1010.2